Regional Weather Roundup
Issued by NWS

Home | Current Version | Previous Version | Text Only | Print | Product List | Glossary On
Versions: 1 2 3 4 5 6 7 8 9 10 11 12 13 14 15 16 17 18 19 20 21 22 23 24 25 26 27 28 29 30 31 32 33 34 35 36 37 38 39 40 41 42 43 44 45 46 47 48 49 50
000
ASUS43 KDTX 181310
RWRMI
MICHIGAN HOURLY REGIONAL WEATHER ROUNDUP
NATIONAL WEATHER SERVICE DETROIT/PONTIAC MI
900 AM EDT FRI APR 18 2014

NOTE: "FAIR" INDICATES FEW OR NO CLOUDS BELOW 12,000 FEET WITH NO
SIGNIFICANT WEATHER AND/OR OBSTRUCTION TO VISIBILITY.

MIZ047>049-052>055-059>063-066>070-074>076-081>083-181400-
SOUTHEAST LOWER MICHIGAN

CITY           SKY/WX    TMP DP  RH WIND       PRES   REMARKS
ADRIAN         CLOUDY    48  42  80 CALM      30.29R
ALMA           MOSUNNY   44  35  69 NE7       30.30R
ANN ARBOR      CLOUDY    50  43  77 CALM      30.28S
BAD AXE        CLOUDY    41  32  71 N6        30.31R
CARO           CLOUDY    44  38  78 N7        30.29S
DETROIT CITY   CLOUDY    51  39  63 CALM      30.29S
DETROIT        CLOUDY    51  41  68 CALM      30.29S
FLINT          CLOUDY    48  45  89 CALM      30.29S FOG
GROSSE ILE     CLOUDY    52  43  71 CALM      30.27S
HILLSDALE      CLOUDY    49  42  77 CALM      30.27S
HOWELL         CLOUDY    46  45  97 CALM      30.27F FOG

CITY           SKY/WX    TMP DP  RH WIND       PRES   REMARKS
JACKSON        CLOUDY    47  44  90 CALM      30.27S FOG
LAMBERTVILLE   CLOUDY    50  39  66 CALM      30.29S
LANSING        PTSUNNY   48  41  76 N3        30.29R HAZE
LAPEER         DRIZZLE   44  42  92 NE3       30.28R
MASON          CLOUDY    46  44  96 CALM      30.28S FOG
MONROE         CLOUDY    50  43  76 CALM      30.27S
MT. CLEMENS    LGT RAIN  45  43  93 CALM      30.28R FOG
PONTIAC        LGT RAIN  47  44  90 S3        30.27R FOG
PORT HOPE        N/A     41  32  70 CALM      30.29S
PORT HURON     RAIN      43  41  93 NE7       30.29S
TRI CITIES     PTSUNNY   45  34  65 NE9       30.30S
TROY           LGT RAIN  48  43  83 CALM      30.30R
SAGINAW HB     CLOUDY    43  36  75 NE6       30.29S
YPSILANTI      LGT RAIN  53  42  66 CALM      30.29R
$$
MIZ043>046-050>051-056>058-064>065-071>073-077>080-181400-
SOUTHWEST LOWER MICHIGAN

CITY           SKY/WX    TMP DP  RH WIND       PRES   REMARKS
BATTLE CREEK   PTSUNNY   48  41  76 N3        30.29R
BENTON HARBOR  SUNNY     43  37  79 CALM      30.29S HAZE
BIG RAPIDS     CLOUDY    40  38  90 CALM      30.28F
COLDWATER      CLOUDY    48  44  85 CALM      30.27S
FREMONT        PTSUNNY   41  38  89 N5        30.29S
HOLLAND        SUNNY     46  38  73 NW3       30.29S
GRAND RAPIDS   MOSUNNY   49  38  65 NE3       30.29R
IONIA          FAIR      46  38  72 NE6       30.28R
KALAMAZOO      PTSUNNY   48  42  80 N3        30.29R
LUDINGTON      CLOUDY    37  30  77 N7        30.34R WCI  31
MARSHALL       CLOUDY    46  45  95 CALM      30.27S FOG
MOUNT PLEASANT CLOUDY    43  34  70 NE7       30.29S
MUSKEGON       PTSUNNY   45  37  73 N8        30.30S
SOUTH HAVEN    SUNNY     45  38  76 CALM      30.29R
$$
MIZ016>042-181400-
NORTHERN LOWER MICHIGAN

CITY           SKY/WX    TMP DP  RH WIND       PRES   REMARKS
ALPENA         CLOUDY    36  31  82 N10       30.30R WCI  28
BEAVER ISLAND  CLOUDY    33  28  80 W3        30.33R
BELLAIRE       CLOUDY    34  32  94 CALM      30.32R FOG
CADILLAC       MOSUNNY   35  32  86 NW7       30.29R WCI  30
CHARLEVOIX     CLOUDY    34  32  90 NW6       30.36R WCI  29
FRANKFORT      CLOUDY    35  29  80 N6        30.34R WCI  29
GAYLORD        CLOUDY    32  31  96 NW6       30.28R FOG     WCI  26
GRAYLING       MOSUNNY   35  33  92 W5        30.30R WCI  31
HARBOR SPRINGS CLOUDY    35  30  80 W3        30.31R
HOUGHTON LAKE  MOSUNNY   38  32  79 W3        30.29R
MANISTEE       CLOUDY    36  28  75 N6        30.35R WCI  31
OSCODA         PTSUNNY   40  31  72 N6        30.30R
PELLSTON       CLOUDY    34  28  79 NW14      30.32R WCI  25
ROGERS CITY    CLOUDY    35  31  86 NW8       30.32R WCI  28
TRAVERSE CITY  CLOUDY    36  30  79 NW8       30.32R WCI  30
$$
MIZ007>008-015-181400-
EASTERN UPPER MICHIGAN

CITY           SKY/WX    TMP DP  RH WIND       PRES   REMARKS
KINROSS        CLOUDY    34  28  80 NW12      30.28R WCI  25
MACKINAC ISLAN CLOUDY    32  30  92 W6        30.30S WCI  26
NEWBERRY       CLOUDY    32  27  80 W7        30.29R WCI  26
S. S. MARIE    CLOUDY    33  27  78 W10       30.28R WCI  25
MUNISING         N/A     34  26  72 NW10      30.32R WCI  26
$$
MIZ004>006-011>014-085-181400-
CENTRAL UPPER MICHIGAN

CITY           SKY/WX    TMP DP  RH WIND       PRES   REMARKS
MANISTIQUE     MOSUNNY   33  27  78 NW9       30.32R WCI  26
ESCANABA       PTSUNNY   36  23  60 NW8       30.34R WCI  29
MENOMINEE      CLOUDY    34  25  69 CALM      30.35S
SAWYER-GWINN   SUNNY     30  25  80 W5        30.30R WCI  25
$$
MIZ001>003-009>011-084-181400-
WESTERN UPPER MICHIGAN

CITY           SKY/WX    TMP DP  RH WIND       PRES   REMARKS
IRON MOUNTAIN  CLOUDY    33  23  66 NW8       30.31R WCI  26
HOUGHTON       CLOUDY    29  24  82 NW12      30.32R WCI  19
COPPER HARBOR    N/A     31  28  89 N15       30.32R WCI  20
IRONWOOD       CLOUDY    23  18  80 SW3       30.33R
$$

ABBREVIATIONS USED IN REMARKS
   TC - TEMPERATURE IN CELSIUS
  WCI - WIND CHILL INDEX
   HX - HEAT INDEX
  VSB - VISIBILITY




USA.gov is the U.S. government's official web portal to all federal, state and local government web resources and services.